Regional Weather Roundup
Issued by NWS Sterling, VA

Home | Current Version | Previous Version | Graphics & Text | Print | Product List | Glossary On
Versions: 1 2 3 4 5 6 7 8 9 10 11 12 13 14 15 16 17 18 19 20 21 22 23 24 25 26 27 28 29 30 31 32 33 34 35 36 37 38 39 40 41 42 43 44 45 46 47 48 49 50
000
ASUS41 KLWX 202210
RWRLWX

REGIONAL WEATHER ROUNDUP
NATIONAL WEATHER SERVICE BALTIMORE MD/WASHINGTON DC
500 PM EST THU NOV 20 2014

Note: "FAIR" indicates few or no clouds below 12,000 feet
with no significant weather and/or obstructions to visibility.
 TC=TEMPERATURE CELSIUS

 * =Non NWS site. Station does not report precipitation (e.g. rain,
    snow, etc.), thunder, or fog.

DCZ001-MDZ009-015-VAZ040>042-051-053>054-202300-
WASHINGTON METRO

CITY           SKY/WX    TMP DP  RH WIND       PRES   REMARKS
WASHINGTON NAT PTCLDY    54  22  28 W7        29.92R
DULLES         PTCLDY    45  18  34 NW13      29.94R
ANDREWS AFB    CLEAR     49  23  36 SW5       29.91R
FT BELVOIR     CLEAR     52  17  25 W8        29.92R
QUANTICO       CLEAR     53  18  25 W9        29.94R
COLLEGE PARK*  MOCLDY    50  23  34 NW7       29.91R
LEESBURG*      CLEAR     45  21  39 NW15G22   29.95R
MANASSAS*      CLEAR     52  18  25 W5        29.92R
GAITHERSBURG*  CLEAR     43  18  36 NW6       29.97R

$$

MDZ006>007-011-014-202300-
BALTIMORE METRO

CITY           SKY/WX    TMP DP  RH WIND       PRES   REMARKS
BWI AIRPORT    PTCLDY    46  22  38 NW7       29.92R
MD SCIENCE CTR   N/A     48  20  32 MISG      29.91R
MARTIN STATE   CLEAR     46  27  46 NW13      29.93R
ANNAPOLIS      PTCLDY    50  23  34 CALM      29.91R
FORT MEADE*    CLEAR     43  23  45 NW5       29.94R

$$

MDZ012-015-019>023-202300-
MARYLAND EASTERN SHORE

CITY           SKY/WX    TMP DP  RH WIND       PRES   REMARKS
OCEAN CITY     CLEAR     47  25  42 SW6       29.94R
SALISBURY      CLEAR     48  26  42 SW5       29.93R
BAY BRIDGE AP*   N/A     48  28  46 SW5       29.91R
CAMBRIDGE*     CLEAR     52  28  40 CALM      29.92R
EASTON*        CLEAR     48  28  46 SW6       29.95R

$$

MDZ017>025-202300-
SOUTHERN MARYLAND

CITY           SKY/WX    TMP DP  RH WIND       PRES   REMARKS
PATUXENT RIVER PTCLDY    49  23  36 SW6       29.92R
ST INIGOES     CLEAR     50  27  40 SW9       29.93R
LEONARDTOWN*   CLEAR     50  27  40 SW6       29.94R

$$

MDZ003>005-202300-
NORTH CENTRAL MARYLAND

CITY           SKY/WX    TMP DP  RH WIND       PRES   REMARKS
FREDERICK*     CLEAR     48  10  21 NW12G18   29.97R
HAGERSTOWN APT CLEAR     38  12  34 W16       29.97R WCI  29
WESTMINSTER*   CLEAR     41  10  28 W15G22    29.93R

$$

MDZ501>502-202300-
WESTERN MARYLAND

CITY           SKY/WX    TMP DP  RH WIND       PRES   REMARKS
OAKLAND*       CLEAR     23  10  58 W9G21     29.91R WCI  13
CUMBERLAND*    CLEAR     36  14  41 W13G24    30.04R WCI  27

$$

VAZ025>031-202300-
SHENANDOAH VALLEY

CITY           SKY/WX    TMP DP  RH WIND       PRES   REMARKS
WINCHESTER*    CLEAR     45   1  16 NW16G22   29.94R
FRONT ROYAL*   FAIR      45  12  26 W10       29.93R
LURAY*         FAIR      46  14  27 W8        29.94R
NEW MARKET*    FAIR      45   6  20 W12G21    29.94R
STAUNTON*      CLEAR     45  10  24 W8        29.96R
WAYNESBORO*    FAIR      44  13  29 W6        29.94R

$$

WVZ021-048>050-054>055-202300-
EASTERN WEST VIRGINIA PANHANDLE

CITY           SKY/WX    TMP DP  RH WIND       PRES   REMARKS
MARTINSBURG    CLEAR     41  11  29 W13G22    29.96R
PETERSBURG*    CLEAR     39  11  31 W15       29.98R

$$

VAZ036>039-050-202300-
CENTRAL FOOTHILLS

CITY           SKY/WX    TMP DP  RH WIND       PRES   REMARKS
CHARLOTTESVILL CLEAR     50  14  23 VRB6      29.94R
CULPEPER*      CLEAR     52  12  20 W7        29.93R
ORANGE*        CLEAR     50  19  29 SW8       29.95R
GORDONSVILLE*  FAIR      49  18  28 SW3       29.94R
WARRENTON*     FAIR      50  24  36 SW5       29.92R

$$

VAZ055>057-202300-
NORTH AND CENTRAL PIEDMONT

CITY           SKY/WX    TMP DP  RH WIND       PRES   REMARKS
FREDERICKSBRG* CLEAR     53  20  27 W8        29.93R
STAFFORD*      CLEAR     51  14  23 CALM      29.97R

$$

NCZ024-NYZ072-PAZ021-071-VAZ022-071-202300-
OTHER REGIONAL OBSERVATIONS

CITY           SKY/WX    TMP DP  RH WIND       PRES   REMARKS
NEW YORK CITY  CLEAR     44  17  33 VRB3G21   29.89R
PHILADELPHIA   PTCLDY    46  23  40 W8        29.91R
PITTSBURGH     PTCLDY    26   9  48 SW14G25   30.02R WCI  14
ROANOKE        CLEAR     48  17  29 W8        30.00R
RICHMOND       CLEAR     54  23  30 SW13      29.96R
RALEIGH        PTCLDY    54  26  34 W7        30.03R

$$

ANZ530>537-202300-
MARINE OBSERVATIONS

STATION/POSITION TIME  TEMP    WIND        PRES
                       AIR SEA DIR/SP/G
                 (UTC) (F)     (DEG/KT/KT) (MB)
THOMAS PT LIGHT  2200   51 50  230/  5/  5 1014.1R
BALT KEY BRIDGE  2200   49     300/  9/  9 1012.4R
COVE POINT       2200   52     270/ 11/ 13 1012.8S
LEWISETTA        2200   53 46  240/  9/ 11 1013.2S
SOLOMONS ISLAND  2200      49                N/A
PINEY POINT      2200          260/  7/ 11   N/A

$$




USA.gov is the U.S. government's official web portal to all federal, state and local government web resources and services.